This demonstration page uses our WeatherBlox Daily Observations layout. Learn more.

40.92945, -100.16068

Hourly Observations for April 10, 2018

Temp ( °F °C ) Dew Point ( °F °C ) Humidity (%) Winds ( mph kmh ) Pressure ( in mb ) Visibility ( mi km ) Precip ( " mm )
12:15 am 00:15 Clear 29 -1.6 23 -4.9 78 78 S 5 7 30.42 1030 10 16.0934 0 0
12:35 am 00:35 Clear 30 -1.3 24 -4.6 79 79 SE 3 6 30.42 1030 10 16.0934 0 0
12:55 am 00:55 Clear 29 -1.8 23 -5 79 79 S 3 6 30.42 1030 10 16.0934 0 0
1:15 am 01:15 Clear 28 -2.1 23 -5.2 80 80 Calm 30.42 1030 10 16.0934 0 0
1:35 am 01:35 Clear 28 -2.5 23 -5.2 82 82 Calm 30.42 1030 10 16.0934 0 0
1:55 am 01:55 Partly Cloudy 28 -2 23 -5.1 80 80 S 5 7 30.42 1030 10 16.0934 0 0
2:15 am 02:15 Partly Cloudy 28 -2.5 22 -5.3 81 81 SSE 3 6 30.42 1030 10 16.0934 0 0
2:35 am 02:35 Clear 29 -1.7 23 -5 78 78 SE 5 7 30.39 1029 10 16.0934 0 0
2:55 am 02:55 Clear 28 -2.2 23 -5.2 80 80 S 3 6 30.39 1029 10 16.0934 0 0
3:15 am 03:15 Partly Cloudy 28 -2 23 -5 80 80 S 3 6 30.39 1029 10 16.0934 0 0
3:35 am 03:35 Mostly Cloudy 31 -0.7 25 -4 79 79 S 3 6 30.39 1029 10 16.0934 0 0
3:55 am 03:55 Partly Cloudy 32 -0.2 25 -4 76 76 SE 5 7 30.39 1029 10 16.0934 0 0
4:15 am 04:15 Partly Cloudy 32 -0.1 25 -4 75 75 SSE 6 9 30.33 1027 10 16.0934 0 0
4:35 am 04:35 Partly Cloudy 32 -0.1 25 -3.8 76 76 S 7 11 30.33 1027 10 16.0934 0 0
4:55 am 04:55 Clear 32 -0.1 25 -3.8 76 76 SSE 7 11 30.33 1027 10 16.0934 0 0
5:15 am 05:15 Clear 32 0 25 -3.7 76 76 SSE 7 11 30.3 1026 10 16.0934 0 0
5:35 am 05:35 Partly Cloudy 32 0.2 26 -3.5 76 76 S 7 11 30.3 1026 10 16.0934 0 0
5:55 am 05:55 Cloudy 33 0.5 26 -3.1 77 77 S 8 13 30.3 1026 10 16.0934 0 0
6:15 am 06:15 Cloudy 33 0.7 27 -2.8 78 78 S 6 9 30.3 1026 10 16.0934 0 0
6:35 am 06:35 Cloudy 33 0.8 27 -2.6 78 78 S 6 9 30.3 1026 10 16.0934 0 0
6:55 am 06:55 Cloudy 34 1 27 -2.6 77 77 SSE 5 7 30.3 1026 10 16.0934 0 0
7:15 am 07:15 Cloudy 34 0.9 28 -2.5 78 78 SSE 6 9 30.3 1026 10 16.0934 0 0
7:35 am 07:35 Cloudy 34 1 28 -2.1 80 80 SE 5 7 30.27 1025 10 16.0934 0 0
7:55 am 07:55 Cloudy 34 1.3 29 -1.8 80 80 S 7 11 30.27 1025 10 16.0934 0 0
8:15 am 08:15 Mostly Cloudy 34 1.2 29 -1.6 82 82 Calm 30.27 1025 10 16.0934 0 0
8:35 am 08:35 Sunny 37 2.7 30 -1.2 76 76 SSW 3 6 30.24 1024 10 16.0934 0 0
8:55 am 08:55 Sunny 38 3.1 30 -1 75 75 Calm 30.24 1024 10 16.0934 0 0
9:15 am 09:15 Sunny 39 4.1 31 -0.3 73 73 SW 3 6 30.24 1024 10 16.0934 0.01 0.254
9:35 am 09:35 Sunny 41 5.1 32 0 70 70 W 5 7 30.24 1024 10 16.0934 0.01 0.254
9:55 am 09:55 Sunny 43 6.1 33 0.4 67 67 W 3 6 30.21 1023 10 16.0934 0.01 0.254
10:15 am 10:15 Sunny 45 7.2 34 0.9 65 65 NW 5 7 30.21 1023 10 16.0934 0 0
10:35 am 10:35 Sunny 47 8.1 34 1.1 62 62 WNW 5 7 30.15 1021 10 16.0934 0 0
10:55 am 10:55 Sunny 48 9.1 34 1.2 58 58 WNW 7 11 30.15 1021 10 16.0934 0 0
11:15 am 11:15 Sunny 50 10 34 1.3 55 55 WNW 6 9 30.15 1021 10 16.0934 0 0
11:35 am 11:35 Sunny 52 11.1 34 1.1 50 50 W 7 11 30.15 1021 10 16.0934 0 0
11:55 am 11:55 Sunny 55 12.6 35 1.6 47 47 WNW 7 11 30.12 1020 10 16.0934 0 0
12:15 pm 12:15 Sunny 57 13.7 35 1.4 43 43 W 3 6 30.09 1019 10 16.0934 0 0
12:35 pm 12:35 Sunny 59 15 34 1.3 40 40 W 3 6 30.06 1018 10 16.0934 0 0
12:55 pm 12:55 Sunny 60 15.8 33 0.7 36 36 NW 6 9 30.06 1018 10 16.0934 0 0
1:15 pm 13:15 Sunny 63 17.2 33 0.3 32 32 NW 7 11 30 1016 10 16.0934 0 0
1:35 pm 13:35 Sunny 65 18.3 32 0.1 29 29 WNW 9 15 30 1016 10 16.0934 0 0
1:55 pm 13:55 Sunny 66 18.9 32 0.1 28 28 Calm 30 1016 10 16.0934 0 0
2:15 pm 14:15 Sunny 67 19.7 30 -0.9 25 25 WNW 8 13 29.97 1015 10 16.0934 0 0
2:35 pm 14:35 Sunny 67 19.7 29 -1.5 24 24 W 9 15 29.97 1015 10 16.0934 0 0
2:55 pm 14:55 Partly Cloudy 70 20.9 26 -3.1 20 20 WNW 12 19 29.94 1014 10 16.0934 0 0
3:15 pm 15:15 Sunny 71 21.6 29 -1.7 21 21 WNW 18 30 29.94 1014 10 16.0934 0 0
3:35 pm 15:35 Partly Cloudy 71 21.6 26 -3.2 19 19 W 15 24 29.94 1014 10 16.0934 0 0
3:55 pm 15:55 Partly Cloudy 71 21.5 27 -2.8 19 19 W 13 20 29.94 1014 10 16.0934 0 0
4:15 pm 16:15 Sunny 70 21.3 26 -3.3 19 19 WNW 12 19 29.94 1014 10 16.0934 0 0
4:35 pm 16:35 Sunny 70 21.2 26 -3.2 19 19 WNW 10 17 29.91 1013 10 16.0934 0 0
4:55 pm 16:55 Sunny 70 21.1 27 -3 20 20 WNW 7 11 29.91 1013 10 16.0934 0 0
5:15 pm 17:15 Sunny 70 21.3 27 -2.7 20 20 W 7 11 29.91 1013 10 16.0934 0 0
5:35 pm 17:35 Sunny 70 21.3 28 -2.5 20 20 WNW 13 20 29.91 1013 10 16.0934 0 0
5:55 pm 17:55 Sunny 70 21 28 -2.1 21 21 W 12 19 29.91 1013 10 16.0934 0 0
6:15 pm 18:15 Sunny 69 20.8 28 -2.5 21 21 Calm 29.88 1012 10 16.0934 0 0
6:35 pm 18:35 Sunny 69 20.8 28 -2 22 22 WNW 8 13 29.88 1012 10 16.0934 0 0
6:55 pm 18:55 Sunny 68 20.1 28 -2.4 22 22 WNW 8 13 29.88 1012 10 16.0934 0 0
7:15 pm 19:15 Sunny 68 19.9 30 -1.2 24 24 WNW 9 15 29.88 1012 10 16.0934 0 0
7:35 pm 19:35 Sunny 66 18.8 32 0 28 28 WNW 5 7 29.91 1013 10 16.0934 0 0
7:55 pm 19:55 Sunny 64 17.5 32 -0.1 31 31 WNW 5 7 29.91 1013 10 16.0934 0 0
8:15 pm 20:15 Clear 59 14.8 33 0.8 39 39 Calm 29.94 1014 10 16.0934 0 0
8:35 pm 20:35 Clear 58 14.6 32 0 37 37 Calm 29.94 1014 10 16.0934 0 0
8:55 pm 20:55 Clear 58 14.3 30 -1.2 35 35 Calm 29.94 1014 10 16.0934 0 0
9:15 pm 21:15 Clear 53 11.8 30 -1.2 41 41 S 5 7 29.97 1015 10 16.0934 0 0
9:35 pm 21:35 Clear 52 11.3 30 -1.1 42 42 S 5 7 29.97 1015 7 11.26538 0 0
9:55 pm 21:55 Clear 50 10 31 -0.5 48 48 SSE 5 7 29.97 1015 10 16.0934 0 0
11:55 pm 23:55 Clear 49 9.7 32 0 51 51 S 6 9 29.94 1014 10 16.0934 0 0

Powered by AerisWeather